HULIANWANG DIGUI-100

导读 | 豆包AI

HULIANWANG DIGUI-100是由中国于2025年11月10日发射的低轨卫星,隶属于中国低轨互联网卫星星座建设序列,主要承担验证低轨宽带通信技术、构建全球互联网络基础设施的任务,将为偏远地区通信覆盖、移动互联服务等提供支撑,助力中国天地一体化信息网络建设。

基本信息
目录编号:
66416
目录名称:
HULIANWANG DIGUI-100
国际标识:
2025-258E
轨道中心:
EARTH
卫星名称:
HULIANWANG DIGUI-100
卫星全名:
HULIANWANG DIGUI-100
卫星状态:
在轨 (已飞行124 天)
发射日期:
2025-11-10 UTC
国别 :
中国 (CN)
星等 :
--
轨道信息
数据来源 国际轨道数据 AOE轨道数据
星历时间 2026-03-14T05:28:29+0800
8小时前
查看轨道信息
2026-03-12T15:00:00+0800
1天前
查看轨道信息
半长轴 7527.409km 7527.41km
偏心率 0.0000447 0.0000326
轨道倾角 50.004° 50.004°
近地点辐角 120.490° 94.477°
升交点赤经 277.564° 283.314°
平近点角 239.601° 148.996°
近地点 1148.935km 1149.027km
远地点 1149.609km 1149.519km
周期 108.325分钟 108.325分钟
每日圈数 13.293354 13.293349
详细信息
使用方式:
暂无
2D轨道图
3D轨道图
轨道高度分析图
轨道倾角分析图
轨道综合分析图
查看轨道综合分析图